www.pogodaiklimat.ru

Погода и климат >> Архив погоды >> Россия >> Краснодарский край >> Староминская


ПОГОДА в Староминская

  • Прогноз погоды в Староминская
  • Монитор погоды в Староминская
  • Климат города

АРХИВ ПОГОДЫ в Староминская

Время (UTC), дата Ветер
(напр.,м/с)
 
Видим.   Явления Облачность Т
(С)
Тd
(С)
f
(%)
Тe
(С)
Тes
(С)
Комфортность P
(гПа)
Po
(гПа)
Тmin
(С)
Tmax
(С)
R
(мм)
R24
(мм)
S
(см)
18 12.11 СВ 5-10
{11}
4000 м слабый ливневой снег 10/10 300 м
[Cb calv]
-4.3 -7.1 81 -11 -11 1034.6 1029.0
21 12.11 СВ 4
{11}
4000 м слабый ливневой снег 10/10 300 м
[Cb calv]
-4.6 -6.1 89 -11 -11 1034.3 1028.7
00 13.11 СВ 5
{11}
4000 м слабый ливневой снег 10/10 300 м
[Cb calv]
-4.9 -6.2 91 -12 -12 1034.2 1028.5
03 13.11 СВ 5
{10}
4000 м слабый ливневой снег {метель} 10/10 300 м
[Cb calv]
-5.5 -6.7 91 -13 -13 1033.9 1028.2 -5.5 5 5
06 13.11 СВ 4
{10}
500 м ливневой снег {метель} ?/? -5.2 -6.4 91 -12 -12 1033.9 1028.2
09 13.11 СВ 5 1000 м ливневой снег 10/10 300 м
[Cb cap]
-3.6 -5.1 89 -11 -11 1033.2 1027.6
12 13.11 СВ 3 4000 м слабый ливневой снег 10/10 300 м
[Cb cap]
-2.7 -4.4 88 -8 -8 1032.5 1026.9
15 13.11 СВ 4 4000 м слабый ливневой снег 10/10 300 м
[Cb cap]
-2.3 -4.0 88 -8 -8 1032.8 1027.2 -2.3 6
18 13.11 СВ 5-12
{12}
4000 м слабый ливневой снег 10/10 300 м
[Cb cap]
-1.3 -2.2 94 -8 -8 1032.1 1026.5
21 13.11 СВ 5
{12}
4000 м дымка {ливн. осадки} [диам. гололёда 1 мм] 10/10 300 м
[Cb calv]
-1.0 -3.1 86 -7 -7 1031.6 1026.0
00 14.11 СВ 4 4000 м дымка {ливн. осадки} [диам. гололёда 1 мм] 10/10 300 м
[Cb calv]
-1.0 -3.9 81 -7 -7 1030.9 1025.4
03 14.11 СВ 4
{10}
4000 м дымка [диам. гололёда 1 мм] 10/10 300 м
[Cb calv]
-1.8 -4.6 81 -8 -8 1030.4 1024.8 -2.4 5 16
06 14.11 СВ 5-10
{11}
4000 м дымка [диам. гололёда 1 мм] 10/10 600 м
[Sc]
-2.7 -5.4 82 -9 -9 1030.2 1024.6 -2.8
09 14.11 В 4
{11}
10 км [диам. гололёда 1 мм] 10/10 600 м
[Sc]
-0.7 -3.9 79 -6 -6 1028.7 1023.2
12 14.11 СВ 4
{10}
10 км 9/9 600 м
[Sc]
-1.7 -4.7 80 -7 -7 1027.7 1022.2
15 14.11 СВ 3
{10}
4000 м дымка 10/10 600 м
[Sc]
-2.0 -4.2 85 -7 -7 1027.3 1021.8 -0.4
18 14.11 СВ 3 4000 м дымка 10/10 600 м
[Sc]
-0.5 -2.8 84 -5 -5 1026.2 1020.7
21 14.11 СВ 3 10 км 10/10 600 м
[Sc]
-0.4 -4.3 75 -5 -5 1024.5 1019.0
00 15.11 СВ 4 10 км 10/10 600 м
[Sc]
-0.7 -4.7 74 -6 -6 1023.8 1018.3
03 15.11 В 4
{10}
10 км 10/10 600 м
[Sc]
-2.2 -5.4 79 -8 -8 1023.4 1017.9 -2.2 12
06 15.11 СВ 5-10
{10}
10 км 10/10 600 м
[Sc]
-2.2 -5.3 79 -9 -9 1024.3 1018.8 -2.3
09 15.11 СВ 4
{11}
10 км 10/10 600 м
[Sc]
-1.3 -4.9 76 -7 -7 1024.0 1018.5
12 15.11 СВ 6-13
{13}
10 км 10/10 600 м
[Sc]
-2.0 -5.5 77 -9 -9 1024.4 1018.9
15 15.11 СВ 4
{13}
4000 м слабый ливневой снег 10/10 300 м
[Cb calv]
-2.1 -4.0 87 -8 -8 1025.4 1019.9 -1.2 1
18 15.11 СВ 4
{11}
4000 м слабый ливневой снег 10/10 300 м
[Cb calv]
-0.9 -1.9 93 -7 -7 1025.4 1019.9
21 15.11 СВ 4
{10}
4000 м дымка {ливн. осадки} 10/10 600 м
[Cb calv]
-0.1 -1.0 94 -6 -6 1025.3 1019.8
00 16.11 В 6-12
{14}
4000 м дымка {ливн. осадки} 10/10 600 м
[Sc]
-0.3 -2.6 84 -7 -7 1025.4 1019.9
03 16.11 СВ 5-10
{12}
4000 м дымка 10/10 600 м
[Sc]
-1.5 -4.0 83 -8 -8 1026.0 1020.5 -2.1 4 14
06 16.11 СВ 5
{12}
10 км 10/10 600 м
[Sc]
-0.9 -5.4 71 -7 -7 1027.2 1021.7
09 16.11 СВ 5-10
{12}
10 км 10/10 600 м
[Sc]
-0.5 -4.0 77 -7 -7 1027.8 1022.3
12 16.11 СВ 5-11
{13}
10 км 10/10 600 м
[Sc]
-0.9 -5.0 74 -7 -7 1028.1 1022.6
15 16.11 СВ 4
{12}
4000 м слабый ливневой снег 10/10 300 м
[Cb calv]
-1.8 -3.3 89 -8 -8 1029.1 1023.6 -0.3 1
18 16.11 СВ 5
{13}
4000 м дымка {ливн. осадки} 10/10 300 м
[Cb calv]
-1.9 -4.1 85 -8 -8 1029.4 1023.9
21 16.11 СВ 4
{10}
4000 м дымка 10/0 300 м
[]
-0.6 -5.8 68 -6 -6 1028.8 1023.3
00 17.11 СВ 4-10
{11}
10 км 10/10 300 м
[Cb calv]
-0.5 -4.1 77 -6 -6 1028.7 1023.2
03 17.11 СВ 4
{11}
10 км 10/10 600 м
[Cb calv]
-0.4 -5.7 67 -6 -6 1029.5 1024.0 -1.9 0.4 11
06 17.11 СВ 4 10 км 10/10 600 м
[Sc]
-0.1 -6.3 63 -5 -5 1030.1 1024.6
09 17.11 СВ 4
{10}
10 км 10/10 600 м
[Sc]
+0.1 -3.8 75 -5 -5 1030.4 1024.9
12 17.11 СВ 3 4000 м слабый ливневой снег 10/10 300 м
[Cb cap]
-1.0 -2.4 90 -6 -6 1030.6 1025.1
15 17.11 СВ 2 4000 м дымка {ливн. осадки} 10/10 300 м
[Cb calv]
-0.7 -3.1 84 -4 -4 1030.9 1025.4 +0.4 0.6
18 17.11 СВ 3 10 км {ливн. осадки} 10/10 600 м
[Sc]
-0.7 -5.1 72 -5 -5 1030.1 1024.6
21 17.11 С 1 10 км 9/9 600 м
[Sc]
-1.0 -4.9 75 -3 -3 1029.6 1024.1
00 18.11 С 2 4000 м дымка 10/10 600 м
[Sc]
-3.0 -5.7 82 -7 -7 1028.7 1023.2
03 18.11 С 1 4000 м дымка 10/10 600 м
[Sc]
-2.5 -5.0 83 -5 -5 1027.9 1022.3 -3.5 10
06 18.11 СВ 1 10 км 10/10 600 м
[Sc]
-1.3 -5.0 76 -3 -3 1027.8 1022.3
09 18.11 В 1 10 км 10/10 600 м
[Sc]
+1.1 -5.2 63 -0 -0 1026.9 1021.4
12 18.11 В 1 10 км 10/10 600 м
[Sc]
+0.5 -5.1 66 -1 -1 1026.3 1020.8
15 18.11 Ю 1 10 км 10/10 600 м
[Sc]
-0.2 -4.6 72 -2 -2 1026.6 1021.1 +2.0
18 18.11 В 1 10 км 10/10 600 м
[Sc]
-0.4 -3.7 78 -2 -2 1026.6 1021.1
21 18.11 В 1 4000 м дымка 10/10 600 м
[Sc]
-0.6 -3.5 81 -3 -3 1026.5 1021.0
00 19.11 СВ 1 4000 м дымка 10/10 600 м
[Sc]
-0.5 -3.3 81 -2 -2 1026.4 1020.9
03 19.11 В 2 4000 м дымка 10/10 600 м
[Sc]
-0.5 -2.3 88 -4 -4 1025.9 1020.4 -0.7 6
06 19.11 В 3 4000 м дымка 10/10 600 м
[Sc]
+0.1 -2.4 83 -5 -5 1026.0 1020.5
09 19.11 В 2 10 км 10/10 600 м
[Sc]
+1.5 -1.5 80 -2 -2 1025.4 1020.0
12 19.11 В 3 10 км 3/3 600 м
[Sc]
+3.0 -0.5 78 -1 0 1024.1 1018.6
15 19.11 СВ 2 10 км 3/3 600 м
[Sc]
+0.6 -1.7 85 -3 -3 1023.5 1018.0 +3.1

 

Местоположение метеостанции Староминская (Краснодарский край, Россия): широта 46.53 долгота 39.02 высота над уровнем моря 43 м.

В архиве по умолчанию представлена погода в Староминская за последнюю неделю. Архивные данные за месяц целиком и за предыдущие месяцы, начиная с января 2011 года, Вы можете получить, выбрав интересующий диапазон дат из раскрывающегося списка и нажав кнопку "Ввод!".


*Определитесь, кто Вы:
робот инопланетянин человек

Внимание! Время в таблицах - всемирное. Для получения местного времени необходимо прибавить поправку, которая в Староминская равна 3 ч.

Смотрите также архив погоды в соседних городах и на ближайших метеорологических станциях:

Погода в Кущевской (Краснодарский край, Россия) (46 км)
Погода в Маргаритово (Ростовская область, Россия) (46 км)
Погода в Каневской (Краснодарский край, Россия) (51 км)
Погода в Ейске (Краснодарский край, Россия) (65 км)
Погода в Таганроге (Ростовская область, Россия) (75 км)
Погода в Сосыке (Краснодарский край, Россия) (76 км)
Погода в Приморско-Ахтарске (Краснодарский край, Россия) (87 км)
Погода в Должанке (Краснодарский край, Россия) (100 км)
Погода в Тимашевске (Краснодарский край, Россия) (100 км)
Погода в Ростове-на-Дону (Ростовская область, Россия) (102 км)

Пояснения к столбцам:

Ветер - указаны скорость ветра в м/с - средняя за 10 мин, порывы в срок и между сроками (в фигурных скобках) и направление, откуда дует ветер: С - северный, СВ - северо-восточный, В - восточный, ЮВ - юго-восточный, Ю - южный, ЮЗ - юго-западный, З - западный, СЗ - северо-западный.
Видимость - горизонтальная дальность видимости в метрах или километрах. При видимости от 1 до 10 км при отсутствии осадков обычно наблюдается дымка, при ухудшении видимости до 1 км и менее - туман. В сухую погоду видимость может ухудшаться дымом, пылью или мглою.
Явления - указаны атмосферные явления, наблюдавшиеся в срок или в последний час перед сроком; фигурными скобками обозначены явления, наблюдавшиеся между сроками (за 1-3 часа до срока); квадратными скобками обозначены град или гололедные отложения с указанием их диаметра в мм.
Облачность - указаны через наклонную черту общая и нижняя облачность в баллах и высота нижней границы облаков в метрах; квадратными скобками обозначены формы облаков: Ci - перистые, Cs - перисто-слоистые, Cc - перисто-кучевые, Ac - высококучевые, As - высокослоистые, Sc - слоисто-кучевые, Ns - слоисто-дождевые, Cu - кучевые, Cb - кучево-дождевые. Подробнее классификацию облаков см. в Атласе облаков (PDF).
T - Температура воздуха - температура, измеренная на высоте 2 м над землей.
Td - Температура точки росы - температура, при понижении до которой содержащийся в воздухе водяной пар достигнет насыщения.
f - Относительная влажность воздуха - влажноcть воздуха, измеренная на высоте 2 м над землей.
Te - Эффективная температура - температура, которую ощущает одетый по сезону человек в тени. Характеристика душности погоды. При расчете учитывается влияние влажности воздуха и скорости ветра на теплоощущения человека.
Tes - Эффективная температура на солнце - температура, которую ощущает человек, с поправкой на солнечный нагрев. Характеристика знойности погоды. Зависит от высоты солнца над горизонтом, облачности и скорости ветра. Ночью, в пасмурную погоду, а также при ветре 12 м/с и более поправка равна нулю.
P - Атмосферное давление - приведенное к уровню моря атмосферное давление.
Po - Атмосферное давление - измеренное на уровне метеостанции атмосферное давление.
Tmin - Минимальная температура - минимум температуры воздуха на высоте 2 м над землей.
Tmax - Максимальная температура - максимум температуры воздуха на высоте 2 м над землей.
R - Количество осадков - Количество выпавших осадков за период времени, мм. При наведении курсора мыши на число - период времени, за который выпало указанное количество осадков.
R24 - Количество осадков - Количество выпавших осадков за 24 часа, мм.
S - Снежный покров - Высота снежного покрова, см. При наведении курсора мыши на число - состояние снежного покрова и степень покрытия местности в баллах.